| time (UTC) | temp F | wind direction | speed MPH | gust MPH | rain 1hr in | rain 24hr in | rain mn in | humidity % | barometer mb |
| 20260502220122 | 69 | 230 | 4.0 | 7.0 | 0.00 | 0.00 | 0.00 | 20 | 1017.7 |
| 20260502215122 | 69 | 247 | 4.0 | 9.0 | 0.00 | 0.00 | 0.00 | 20 | 1017.8 |
| 20260502214122 | 69 | 240 | 4.0 | 9.0 | 0.00 | 0.00 | 0.00 | 21 | 1018.0 |
| 20260502213122 | 69 | 237 | 4.0 | 8.0 | 0.00 | 0.00 | 0.00 | 21 | 1018.2 |
| 20260502212122 | 69 | 246 | 4.0 | 9.0 | 0.00 | 0.00 | 0.00 | 20 | 1018.3 |
| 20260502211122 | 69 | 251 | 4.0 | 10.0 | 0.00 | 0.00 | 0.00 | 19 | 1018.4 |
| 20260502210122 | 69 | 228 | 4.0 | 8.0 | 0.00 | 0.00 | 0.00 | 22 | 1018.6 |
| 20260502205122 | 68 | 235 | 4.0 | 8.0 | 0.00 | 0.00 | 0.00 | 23 | 1018.6 |
| 20260502204122 | 68 | 244 | 4.0 | 9.0 | 0.00 | 0.00 | 0.00 | 22 | 1018.8 |
| 20260502203143 | 68 | 216 | 5.0 | 9.0 | 0.00 | 0.00 | 0.00 | 21 | 1018.8 |
| 20260502202122 | 68 | 222 | 4.0 | 8.0 | 0.00 | 0.00 | 0.00 | 22 | 1018.9 |
| 20260502201122 | 68 | 243 | 4.0 | 9.0 | 0.00 | 0.00 | 0.00 | 23 | 1018.9 |
| 20260502200122 | 68 | 250 | 5.0 | 12.0 | 0.00 | 0.00 | 0.00 | 24 | 1019.0 |
| 20260502195122 | 68 | 254 | 4.0 | 9.0 | 0.00 | 0.00 | 0.00 | 25 | 1019.0 |
| 20260502194143 | 68 | 254 | 3.0 | 10.0 | 0.00 | 0.00 | 0.00 | 19 | 1019.1 |
| 20260502193122 | 69 | 256 | 2.0 | 12.0 | 0.00 | 0.00 | 0.00 | 22 | 1019.2 |
| 20260502192122 | 69 | 264 | 5.0 | 13.0 | 0.00 | 0.00 | 0.00 | 24 | 1019.3 |
| 20260502191143 | 69 | 277 | 2.0 | 7.0 | 0.00 | 0.00 | 0.00 | 19 | 1019.6 |
| 20260502190122 | 69 | 18 | 3.0 | 6.0 | 0.00 | 0.00 | 0.00 | 25 | 1019.7 |
| 20260502185122 | 69 | 129 | 2.0 | 5.0 | 0.00 | 0.00 | 0.00 | 18 | 1019.9 |
| 20260502184122 | 68 | 132 | 1.0 | 3.0 | 0.00 | 0.00 | 0.00 | 23 | 1020.0 |
| 20260502183122 | 67 | 137 | 2.0 | 6.0 | 0.00 | 0.00 | 0.00 | 19 | 1020.2 |
| 20260502182122 | 66 | 126 | 1.0 | 4.0 | 0.00 | 0.00 | 0.00 | 20 | 1020.3 |
| 20260502181122 | 65 | 131 | 1.0 | 4.0 | 0.00 | 0.00 | 0.00 | 21 | 1020.4 |
| 20260502180122 | 64 | 186 | 1.0 | 3.0 | 0.00 | 0.00 | 0.00 | 26 | 1020.7 |
| 20260502170122 | 58 | 117 | 1.0 | 3.0 | 0.00 | 0.00 | 0.00 | 29 | 1021.3 |
| 20260502164122 | 56 | 89 | 1.0 | 3.0 | 0.00 | 0.00 | 0.00 | 36 | 1021.5 |
| 20260502163122 | 55 | 137 | 1.0 | 6.0 | 0.00 | 0.00 | 0.00 | 36 | 1021.6 |
| 20260502162143 | 54 | 180 | 1.0 | 4.0 | 0.00 | 0.00 | 0.00 | 34 | 1021.7 |
| 20260502161122 | 54 | 152 | 1.0 | 5.0 | 0.00 | 0.00 | 0.00 | 43 | 1021.8 |
| 20260502160143 | 52 | 142 | 1.0 | 3.0 | 0.00 | 0.00 | 0.00 | 38 | 1021.9 |
| 20260502152143 | 45 | 120 | 1.0 | 4.0 | 0.00 | 0.00 | 0.00 | 47 | 1022.2 |
| 20260502151122 | 43 | 249 | 0.0 | 1.0 | 0.00 | 0.00 | 0.00 | 59 | 1022.2 |
| 20260502150122 | 42 | 250 | 0.0 | 2.0 | 0.00 | 0.00 | 0.00 | 62 | 1022.2 |
| 20260502140122 | 36 | 329 | 1.0 | 2.0 | 0.00 | 0.00 | 0.00 | 74 | 1022.4 |
| 20260502123122 | 34 | 0 | 0.0 | 0.0 | 0.00 | 0.00 | 0.00 | 69 | 1021.9 |
| 20260502122122 | 34 | 333 | 0.0 | 2.0 | 0.00 | 0.00 | 0.00 | 69 | 1021.7 |
| 20260502121122 | 34 | 332 | 0.0 | 2.0 | 0.00 | 0.00 | 0.00 | 68 | 1021.7 |
| 20260502120143 | 34 | 331 | 1.0 | 2.0 | 0.00 | 0.00 | 0.00 | 68 | 1021.6 |
| 20260502115122 | 34 | 0 | 0.0 | 0.0 | 0.00 | 0.00 | 0.00 | 67 | 1021.5 |
| 20260502114122 | 35 | 0 | 0.0 | 0.0 | 0.00 | 0.00 | 0.00 | 67 | 1021.6 |
| 20260502113122 | 35 | 331 | 0.0 | 1.0 | 0.00 | 0.00 | 0.00 | 66 | 1021.7 |
| 20260502112122 | 35 | 0 | 0.0 | 0.0 | 0.00 | 0.00 | 0.00 | 66 | 1021.6 |
| 20260502111143 | 35 | 0 | 0.0 | 0.0 | 0.00 | 0.00 | 0.00 | 65 | 1021.6 |
| 20260502110122 | 36 | 0 | 0.0 | 0.0 | 0.00 | 0.00 | 0.00 | 65 | 1021.6 |
| 20260502105122 | 36 | 332 | 0.0 | 1.0 | 0.00 | 0.00 | 0.00 | 64 | 1021.6 |
| 20260502104122 | 37 | 0 | 0.0 | 0.0 | 0.00 | 0.00 | 0.00 | 64 | 1021.4 |
| 20260502103122 | 37 | 342 | 0.0 | 2.0 | 0.00 | 0.00 | 0.00 | 63 | 1021.5 |
| 20260502102122 | 38 | 0 | 0.0 | 0.0 | 0.00 | 0.00 | 0.00 | 63 | 1021.5 |
| 20260502101122 | 38 | 351 | 0.0 | 1.0 | 0.00 | 0.00 | 0.00 | 63 | 1021.4 |
| 20260502100122 | 37 | 349 | 1.0 | 3.0 | 0.00 | 0.00 | 0.00 | 63 | 1021.3 |
| 20260502091143 | 39 | 0 | 0.0 | 0.0 | 0.00 | 0.00 | 0.00 | 61 | 1021.1 |
| 20260502090122 | 39 | 0 | 0.0 | 0.0 | 0.00 | 0.00 | 0.00 | 61 | 1021.1 |
| 20260502071143 | 43 | 0 | 0.0 | 0.0 | 0.00 | 0.00 | 0.00 | 56 | 1021.0 |
| 20260502070122 | 43 | 0 | 0.0 | 0.0 | 0.00 | 0.00 | 0.00 | 56 | 1020.9 |
| 20260502065122 | 43 | 0 | 0.0 | 0.0 | 0.00 | 0.00 | 0.00 | 54 | 1020.9 |
| 20260502064143 | 43 | 292 | 0.0 | 1.0 | 0.00 | 0.00 | 0.00 | 53 | 1020.9 |
| 20260502063122 | 44 | 292 | 0.0 | 1.0 | 0.00 | 0.00 | 0.00 | 53 | 1020.6 |
| 20260502062122 | 44 | 291 | 0.0 | 2.0 | 0.00 | 0.00 | 0.00 | 52 | 1020.6 |
| 20260502061122 | 44 | 288 | 0.0 | 1.0 | 0.00 | 0.00 | 0.00 | 52 | 1020.4 |
| 20260502055122 | 46 | 306 | 1.0 | 4.0 | 0.00 | 0.00 | 0.00 | 53 | 1020.3 |
| 20260502054122 | 46 | 338 | 1.0 | 3.0 | 0.00 | 0.00 | 0.00 | 48 | 1020.2 |
| 20260502053122 | 47 | 0 | 0.0 | 0.0 | 0.00 | 0.00 | 0.00 | 50 | 1020.3 |
| 20260502052122 | 47 | 0 | 0.0 | 0.0 | 0.00 | 0.00 | 0.00 | 50 | 1020.3 |
| 20260502051122 | 47 | 317 | 0.0 | 1.0 | 0.00 | 0.00 | 0.00 | 48 | 1020.1 |
| 20260502050143 | 48 | 0 | 0.0 | 0.0 | 0.00 | 0.00 | 0.00 | 46 | 1020.0 |
| 20260502045143 | 49 | 0 | 0.0 | 0.0 | 0.00 | 0.00 | 0.00 | 46 | 1020.0 |
| 20260502044122 | 49 | 0 | 0.0 | 0.0 | 0.00 | 0.00 | 0.00 | 44 | 1020.1 |
| 20260502043122 | 49 | 304 | 1.0 | 2.0 | 0.00 | 0.00 | 0.00 | 44 | 1020.0 |
| 20260502042122 | 50 | 285 | 1.0 | 2.0 | 0.00 | 0.00 | 0.00 | 44 | 1019.9 |
| 20260502041122 | 50 | 281 | 2.0 | 4.0 | 0.00 | 0.00 | 0.00 | 42 | 1019.7 |
| 20260502040122 | 51 | 279 | 0.0 | 2.0 | 0.00 | 0.00 | 0.00 | 41 | 1019.6 |
| 20260502035122 | 52 | 279 | 1.0 | 3.0 | 0.00 | 0.00 | 0.00 | 41 | 1019.4 |
| 20260502034143 | 53 | 332 | 1.0 | 8.0 | 0.00 | 0.00 | 0.00 | 38 | 1019.3 |
| 20260502033122 | 53 | 329 | 1.0 | 4.0 | 0.00 | 0.00 | 0.00 | 38 | 1019.2 |
| 20260502032122 | 54 | 296 | 1.0 | 6.0 | 0.00 | 0.00 | 0.00 | 38 | 1019.0 |
| 20260502031122 | 54 | 327 | 5.0 | 11.0 | 0.00 | 0.00 | 0.00 | 36 | 1018.9 |
| 20260502030122 | 55 | 344 | 4.0 | 10.0 | 0.00 | 0.00 | 0.00 | 33 | 1018.7 |
| 20260502025122 | 56 | 337 | 2.0 | 5.0 | 0.00 | 0.00 | 0.00 | 33 | 1018.6 |
| 20260502024122 | 57 | 349 | 3.0 | 5.0 | 0.00 | 0.00 | 0.00 | 31 | 1018.5 |
| 20260502023122 | 57 | 277 | 2.0 | 4.0 | 0.00 | 0.00 | 0.00 | 32 | 1018.3 |
| 20260502022143 | 58 | 278 | 4.0 | 9.0 | 0.00 | 0.00 | 0.00 | 30 | 1018.1 |
| 20260502021122 | 58 | 270 | 5.0 | 8.0 | 0.00 | 0.00 | 0.00 | 31 | 1018.0 |
| 20260502020122 | 60 | 305 | 1.0 | 6.0 | 0.00 | 0.00 | 0.00 | 30 | 1018.0 |
| 20260502015143 | 61 | 273 | 3.0 | 8.0 | 0.00 | 0.00 | 0.00 | 28 | 1018.0 |
| 20260502014122 | 62 | 279 | 2.0 | 11.0 | 0.00 | 0.00 | 0.00 | 27 | 1017.8 |
| 20260502013144 | 62 | 302 | 1.0 | 4.0 | 0.00 | 0.00 | 0.00 | 28 | 1017.8 |
| 20260502012122 | 62 | 306 | 3.0 | 9.0 | 0.00 | 0.00 | 0.00 | 27 | 1017.7 |
| 20260502011143 | 63 | 310 | 5.0 | 12.0 | 0.00 | 0.00 | 0.00 | 26 | 1017.6 |
| 20260502010143 | 63 | 313 | 4.0 | 11.0 | 0.00 | 0.00 | 0.00 | 26 | 1017.6 |
| 20260502005143 | 64 | 331 | 5.0 | 13.0 | 0.00 | 0.00 | 0.00 | 29 | 1017.6 |
| 20260502004122 | 64 | 327 | 6.0 | 14.0 | 0.00 | 0.00 | 0.00 | 26 | 1017.5 |
| 20260502003122 | 64 | 334 | 6.0 | 11.0 | 0.00 | 0.00 | 0.00 | 25 | 1017.6 |
| 20260502002122 | 64 | 332 | 6.0 | 12.0 | 0.00 | 0.00 | 0.00 | 25 | 1017.6 |
| 20260502001123 | 64 | 339 | 7.0 | 12.0 | 0.00 | 0.00 | 0.00 | 28 | 1017.7 |
| 20260502000123 | 64 | 337 | 4.0 | 11.0 | 0.00 | 0.00 | 0.00 | 25 | 1017.7 |
| 20260501235123 | 64 | 297 | 5.0 | 12.0 | 0.00 | 0.00 | 0.00 | 27 | 1017.7 |
| 20260501234123 | 64 | 292 | 4.0 | 10.0 | 0.00 | 0.00 | 0.00 | 28 | 1017.8 |
| 20260501233144 | 64 | 318 | 3.0 | 9.0 | 0.00 | 0.00 | 0.00 | 24 | 1017.8 |
| 20260501232123 | 64 | 321 | 3.0 | 11.0 | 0.00 | 0.00 | 0.00 | 25 | 1017.8 |
| 20260501231123 | 64 | 340 | 6.0 | 11.0 | 0.00 | 0.00 | 0.00 | 24 | 1017.9 |
| 20260501230123 | 64 | 280 | 4.0 | 9.0 | 0.00 | 0.00 | 0.00 | 23 | 1017.9 |
| 20260501225123 | 65 | 207 | 4.0 | 8.0 | 0.00 | 0.00 | 0.00 | 27 | 1018.0 |
| 20260501224123 | 65 | 213 | 3.0 | 8.0 | 0.00 | 0.00 | 0.00 | 24 | 1018.0 |
| 20260501223123 | 66 | 224 | 4.0 | 8.0 | 0.00 | 0.00 | 0.00 | 25 | 1018.0 |
| 20260501222123 | 66 | 232 | 3.0 | 8.0 | 0.00 | 0.00 | 0.00 | 23 | 1018.2 |
| 20260501221123 | 67 | 216 | 3.0 | 7.0 | 0.00 | 0.00 | 0.00 | 20 | 1018.3 |